Flag for India

Past Weather in 22°35'53"N, 88°22'37"E, India — Yesterday and Last 2 Weeks

Currently: 99 °F. Haze. (Weather station: Calcutta / Dum Dum, India). See more current weather

Past Weather in 22°35'53"N, 88°22'37"E — Graph

°F

22°35'53"N, 88°22'37"E Temperature Yesterday

Maximum temperature yesterday: 99 °F (at 12:30 pm)
Minimum temperature yesterday: 82 °F (at 2:30 am)
Average temperature yesterday: 89 °F

High & Low Weather Summary for the Past Weeks

 TemperatureHumidityPressure
High100 °F (Apr 14, 1:00 pm)94% (Apr 7, 11:00 pm)29.92 "Hg (Apr 7, 11:00 pm)
Low73 °F (Apr 17, 9:30 pm)16% (Apr 19, 4:00 pm)29.62 "Hg (Apr 19, 4:30 pm)
Average87 °F69%29.77 "Hg
* Reported Apr 6 3:30 pm — Apr 21 2:30 pm, 22°35'53"N, 88°22'37"E. Weather by CustomWeather, © 2021

Note: Actual official high and low records may vary slightly from our data, if they occured in-between our weather recording intervals... More about our weather records

22°35'53"N, 88°22'37"E Weather History for the Previous 24 Hours

Scroll right to see more
 ConditionsComfort  
Time TempWeatherWind HumidityBarometerVisibility
2:30 pm
Wed, Apr 21
97 °FHaze.8 mph53%29.71 "Hg3 mi
2:00 pm97 °FHaze.10 mph53%29.71 "Hg3 mi
1:30 pm97 °FHaze.10 mph53%29.71 "Hg3 mi
1:00 pm97 °FHaze.12 mph53%29.74 "Hg3 mi
12:30 pm95 °FHaze.12 mph56%29.77 "Hg3 mi
12:00 pm95 °FHaze.12 mph56%29.77 "Hg3 mi
11:30 am95 °FHaze.10 mph56%29.77 "Hg3 mi
11:00 am95 °FHaze.8 mph56%29.77 "Hg3 mi
10:30 am93 °FHaze.12 mph59%29.80 "Hg3 mi
10:00 am93 °FHaze.12 mph59%29.80 "Hg3 mi
9:30 am91 °FHaze.8 mph63%29.83 "Hg3 mi
9:00 am90 °FHaze.8 mph71%29.83 "Hg3 mi
8:30 am88 °FHaze.9 mph75%29.83 "Hg2 mi
8:00 am88 °FHaze.9 mph75%29.83 "Hg2 mi
7:30 am86 °FHaze.9 mph79%29.80 "Hg2 mi
7:00 am84 °FHaze.6 mph84%29.80 "Hg2 mi
6:30 am84 °FHaze.6 mph84%29.77 "Hg2 mi
6:00 am82 °FHaze.6 mph89%29.77 "Hg2 mi
5:30 am82 °FHaze.7 mph89%29.74 "Hg2 mi
5:00 am84 °FPassing clouds.8 mph84%29.74 "Hg2 mi
4:30 am84 °FPassing clouds.9 mph84%29.74 "Hg2 mi
4:00 am84 °FPassing clouds.14 mph84%29.71 "Hg2 mi
3:30 am84 °FPassing clouds.14 mph84%29.71 "Hg2 mi
3:00 am84 °FPassing clouds.12 mph84%29.71 "Hg2 mi
2:30 am84 °FPassing clouds.8 mph84%29.71 "Hg2 mi
2:00 am84 °FPassing clouds.8 mph84%29.71 "Hg2 mi
1:30 am84 °FPassing clouds.9 mph84%29.71 "Hg2 mi
1:00 am84 °FPassing clouds.9 mph84%29.71 "Hg2 mi
12:30 am84 °FPassing clouds.9 mph84%29.71 "Hg2 mi
12:00 am84 °FPassing clouds.7 mph84%29.74 "Hg2 mi
11:30 pm
Tue, Apr 20
84 °FPassing clouds.8 mph84%29.74 "Hg2 mi
11:00 pm84 °FPassing clouds.8 mph84%29.74 "Hg2 mi
10:30 pm84 °FPassing clouds.9 mph89%29.74 "Hg2 mi
10:00 pm84 °FPassing clouds.8 mph84%29.74 "Hg2 mi
9:30 pm84 °FPassing clouds.8 mph84%29.71 "Hg2 mi
9:00 pm86 °FPassing clouds.10 mph79%29.71 "Hg2 mi
8:30 pm86 °FPassing clouds.8 mph84%29.71 "Hg2 mi
8:00 pm86 °FPassing clouds.10 mph84%29.68 "Hg2 mi
7:30 pm88 °FHaze.8 mph79%29.68 "Hg2 mi
7:00 pm88 °FHaze.15 mph79%29.65 "Hg2 mi
6:30 pm91 °FHaze.12 mph67%29.65 "Hg2 mi
6:00 pm91 °FHaze.7 mph59%29.65 "Hg2 mi
5:30 pm93 °FHaze.9 mph56%29.62 "Hg2 mi
5:00 pm95 °FHaze.12 mph53%29.65 "Hg3 mi
4:30 pm95 °FHaze.14 mph53%29.65 "Hg3 mi
4:00 pm97 °FHaze.14 mph50%29.65 "Hg3 mi
3:30 pm97 °FHaze.12 mph50%29.65 "Hg3 mi
3:00 pm97 °FHaze.13 mph53%29.65 "Hg3 mi
Weather by CustomWeather, © 2021

See weather overview